Find Starlink 32258

NORAD ID: 60939 Int'l Des: 2024-155 Owner: SPXS Country: US Constellation: starlink operational
LEOCIRCULAR

現在のビュー

3D地球を読み込み中...

About Starlink 32258

Starlink 32258 (NORAD 60939) is a starlink constellation satellite (v2 mini) launched Aug 31, 2024 by SPXS of US. It operates in LEO, CIRCULAR orbit with a mass of 730.00 kg.

Starlink 32258について

説明を読み込み中...

次回通過

Passes for default location (London). Set your location on the main map for personalized predictions.

高度履歴

Loading altitude history...

軌道要素

1 60939U 24155R 26170.86440468 .00002646 00000-0 89434-4 0 9990
2 60939 53.1609 14.4144 0001311 92.9038 267.2114 15.34398253101949
Epoch: Jun 19, 2026 • Age: 63 hours

現在のステータス

高度 469.7 km
速度 7.63 km/s
衛星直下点 -23.63°S, 107.6°E
打ち上げ日 Aug 31, 2024
運用期間 1.8 years
タイプ internet

技術仕様

分類 Payload
質量 730.00 kg
乾燥質量 700.00 kg
総質量 730.00 kg
長さ 0.30 m
直径 4.10 m
スパン 29.00 m
形状 Box + pan
製造者 SPXS
バスタイプ Starlink V2M
フェーズステータス In Orbit
所有者/国 SPXS/US

Most Searched